Location: C�an Torras
(41.5052°N, 1.9280°E)
Time: 09:08:50
(UTC+00:00)

N. Korean satellite - Visible Passes

Search period start: 23 April 2021 00:00
Search period end: 03 May 2021 00:00
Orbit: 452 x 499 km, 97.2° (Epoch: 22 April)

Date Brightness Start Highest point End Pass type
(mag) Time Alt. Az. Time Alt. Az. Time Alt. Az.
23 Apr 9.6 04:22:20 10° NE 04:24:34 16° E 04:26:45 10° SE visible
27 Apr 10.2 04:09:17 10° E 04:09:33 10° E 04:09:49 10° E visible
30 Apr 9.6 04:19:47 10° ENE 04:21:46 14° E 04:23:43 10° SE visible
